TimeCDT,TemperatureF,Dew PointF,Humidity,Sea Level PressureIn,VisibilityMPH,Wind Direction,Wind SpeedMPH,Gust SpeedMPH,PrecipitationIn,Events,Conditions,WindDirDegrees,DateUTC
12:15 AM,28.4,23.0,80,29.99,10.0,South,5.8,-,N/A,,Overcast,190,2013-04-24 05:15:00
12:35 AM,26.6,21.2,80,29.99,10.0,SSW,8.1,-,N/A,,Scattered Clouds,200,2013-04-24 05:35:00
12:55 AM,24.8,21.2,86,29.99,10.0,SSW,6.9,-,N/A,,Clear,200,2013-04-24 05:55:00
1:15 AM,21.2,19.4,93,29.98,10.0,SSW,8.1,-,N/A,,Clear,200,2013-04-24 06:15:00
1:35 AM,21.2,19.4,93,29.98,10.0,SSW,4.6,-,N/A,,Clear,210,2013-04-24 06:35:00
1:56 AM,21.2,17.6,86,29.97,10.0,SSW,6.9,-,N/A,,Clear,200,2013-04-24 06:56:00
2:15 AM,21.2,19.4,93,29.97,10.0,SSW,4.6,-,N/A,,Clear,210,2013-04-24 07:15:00
2:35 AM,19.4,17.6,93,29.96,10.0,South,6.9,-,N/A,,Clear,190,2013-04-24 07:35:00
2:55 AM,19.4,17.6,93,29.96,10.0,South,3.5,-,N/A,,Clear,190,2013-04-24 07:55:00
3:15 AM,17.6,17.6,100,29.95,7.0,Calm,Calm,-,N/A,,Clear,0,2013-04-24 08:15:00
3:35 AM,17.6,15.8,93,29.94,7.0,South,6.9,-,N/A,,Clear,170,2013-04-24 08:35:00
3:55 AM,17.6,15.8,93,29.94,7.0,Calm,Calm,-,N/A,,Clear,0,2013-04-24 08:55:00
4:15 AM,17.6,15.8,93,29.94,7.0,Calm,Calm,-,N/A,,Clear,0,2013-04-24 09:15:00
4:35 AM,17.6,15.8,93,29.94,5.0,South,6.9,-,N/A,,Clear,170,2013-04-24 09:35:00
4:55 AM,17.6,15.8,93,29.94,5.0,South,6.9,-,N/A,,Clear,170,2013-04-24 09:55:00
5:15 AM,15.8,15.8,100,29.94,5.0,SSE,6.9,-,N/A,,Clear,160,2013-04-24 10:15:00
5:35 AM,17.6,17.6,100,29.93,5.0,South,6.9,-,N/A,,Clear,170,2013-04-24 10:35:00
5:55 AM,17.6,15.8,93,29.93,5.0,SSE,5.8,-,N/A,,Clear,160,2013-04-24 10:55:00
6:15 AM,17.6,15.8,93,29.92,4.0,Calm,Calm,-,N/A,,Clear,0,2013-04-24 11:15:00
6:35 AM,17.6,17.6,100,29.92,2.5,South,3.5,-,N/A,,Clear,170,2013-04-24 11:35:00
6:55 AM,17.6,15.8,93,29.91,3.0,Calm,Calm,-,N/A,,Clear,0,2013-04-24 11:55:00
7:15 AM,19.4,19.4,100,29.90,3.0,SSE,5.8,-,N/A,,Clear,160,2013-04-24 12:15:00
7:35 AM,21.2,21.2,100,29.90,4.0,SSE,3.5,-,N/A,,Clear,160,2013-04-24 12:35:00
7:55 AM,23.0,21.2,93,29.90,4.0,SSE,5.8,-,N/A,,Clear,160,2013-04-24 12:55:00
8:15 AM,24.8,23.0,93,29.90,5.0,Calm,Calm,-,N/A,,Scattered Clouds,0,2013-04-24 13:15:00
8:35 AM,24.8,23.0,93,29.90,5.0,Calm,Calm,-,N/A,,Scattered Clouds,0,2013-04-24 13:35:00
8:55 AM,26.6,24.8,93,29.90,5.0,Calm,Calm,-,N/A,,Scattered Clouds,0,2013-04-24 13:55:00
9:15 AM,28.4,24.8,86,29.89,7.0,Calm,Calm,-,N/A,,Clear,0,2013-04-24 14:15:00
9:35 AM,28.4,24.8,86,29.89,10.0,South,5.8,-,N/A,,Clear,180,2013-04-24 14:35:00
9:56 AM,30.2,24.8,80,29.89,10.0,SSW,6.9,-,N/A,,Clear,200,2013-04-24 14:56:00
10:15 AM,32.0,23.0,69,29.89,10.0,SSW,11.5,-,N/A,,Clear,200,2013-04-24 15:15:00
10:35 AM,33.8,26.6,75,29.88,10.0,SSW,10.4,-,N/A,,Mostly Cloudy,200,2013-04-24 15:35:00
10:56 AM,33.8,26.6,75,29.89,10.0,SSW,11.5,-,N/A,,Scattered Clouds,210,2013-04-24 15:56:00
11:15 AM,33.8,28.4,81,29.89,10.0,SW,11.5,-,N/A,,Scattered Clouds,220,2013-04-24 16:15:00
11:35 AM,33.8,26.6,75,29.89,10.0,SSW,12.7,-,N/A,,Scattered Clouds,210,2013-04-24 16:35:00
11:56 AM,33.8,26.6,75,29.88,10.0,SSW,13.8,-,N/A,,Clear,200,2013-04-24 16:56:00
12:15 PM,33.8,26.6,75,29.88,10.0,South,10.4,-,N/A,,Scattered Clouds,190,2013-04-24 17:15:00
12:35 PM,33.8,26.6,75,29.87,10.0,SSW,11.5,-,N/A,,Clear,200,2013-04-24 17:35:00
12:55 PM,35.6,26.6,70,29.87,10.0,SSW,10.4,-,N/A,,Clear,200,2013-04-24 17:55:00
1:15 PM,35.6,28.4,75,29.87,10.0,SSW,12.7,-,N/A,,Mostly Cloudy,210,2013-04-24 18:15:00
1:35 PM,37.4,28.4,70,29.87,10.0,SSW,13.8,-,N/A,,Mostly Cloudy,210,2013-04-24 18:35:00
1:55 PM,37.4,28.4,70,29.87,10.0,SSW,11.5,-,N/A,,Mostly Cloudy,200,2013-04-24 18:55:00
2:15 PM,37.4,28.4,70,29.86,10.0,SSW,10.4,-,N/A,,Scattered Clouds,200,2013-04-24 19:15:00
2:35 PM,37.4,28.4,70,29.86,10.0,SSW,11.5,-,N/A,,Clear,210,2013-04-24 19:35:00
2:55 PM,37.4,30.2,75,29.86,10.0,SSW,12.7,-,N/A,,Clear,210,2013-04-24 19:55:00
3:15 PM,37.4,28.4,70,29.86,10.0,SSW,12.7,-,N/A,,Mostly Cloudy,200,2013-04-24 20:15:00
3:35 PM,35.6,28.4,75,29.87,10.0,SW,15.0,-,N/A,,Overcast,220,2013-04-24 20:35:00
3:55 PM,37.4,32.0,81,29.87,10.0,SW,16.1,-,N/A,,Mostly Cloudy,230,2013-04-24 20:55:00
4:15 PM,37.4,30.2,75,29.87,10.0,SW,11.5,-,N/A,,Mostly Cloudy,220,2013-04-24 21:15:00
4:35 PM,37.4,30.2,75,29.87,10.0,SW,10.4,-,N/A,,Overcast,220,2013-04-24 21:35:00
4:55 PM,37.4,30.2,75,29.87,10.0,SW,8.1,-,N/A,,Overcast,230,2013-04-24 21:55:00
5:15 PM,37.4,28.4,70,29.87,10.0,SW,10.4,-,N/A,,Mostly Cloudy,230,2013-04-24 22:15:00
5:35 PM,37.4,30.2,75,29.87,10.0,SW,9.2,13.8,N/A,,Mostly Cloudy,230,2013-04-24 22:35:00
5:55 PM,35.6,30.2,81,29.87,3.0,Calm,Calm,-,N/A,,Overcast,0,2013-04-24 22:55:00
6:15 PM,33.8,30.2,87,29.87,10.0,Calm,Calm,-,N/A,Rain,Light Rain,0,2013-04-24 23:15:00
6:35 PM,39.2,30.2,70,29.88,10.0,WNW,6.9,-,N/A,,Mostly Cloudy,300,2013-04-24 23:35:00
6:55 PM,37.4,30.2,75,29.88,10.0,WNW,10.4,-,N/A,,Scattered Clouds,290,2013-04-24 23:55:00
7:15 PM,37.4,30.2,75,29.89,10.0,WNW,10.4,-,N/A,,Scattered Clouds,290,2013-04-25 00:15:00
7:35 PM,35.6,28.4,75,29.90,10.0,West,11.5,-,N/A,,Mostly Cloudy,280,2013-04-25 00:35:00
7:55 PM,33.8,30.2,87,29.90,10.0,WNW,8.1,-,N/A,,Overcast,290,2013-04-25 00:55:00
8:15 PM,33.8,28.4,81,29.91,10.0,WNW,8.1,-,N/A,,Overcast,300,2013-04-25 01:15:00
8:35 PM,33.8,28.4,81,29.91,10.0,Calm,Calm,-,N/A,,Overcast,0,2013-04-25 01:35:00
8:55 PM,30.2,28.4,93,29.92,10.0,Calm,Calm,-,N/A,,Scattered Clouds,0,2013-04-25 01:55:00
9:55 PM,30.2,26.6,86,29.96,10.0,WNW,6.9,-,N/A,,Scattered Clouds,290,2013-04-25 02:55:00
10:15 PM,28.4,26.6,93,29.96,10.0,Calm,Calm,-,N/A,,Clear,0,2013-04-25 03:15:00
10:35 PM,28.4,26.6,93,29.97,10.0,West,5.8,-,N/A,,Clear,280,2013-04-25 03:35:00
10:55 PM,28.4,26.6,93,29.98,10.0,West,6.9,-,N/A,,Clear,280,2013-04-25 03:55:00
11:15 PM,26.6,26.6,100,29.99,10.0,West,6.9,-,N/A,,Clear,280,2013-04-25 04:15:00
11:35 PM,28.4,26.6,93,29.99,10.0,West,8.1,-,N/A,,Mostly Cloudy,280,2013-04-25 04:35:00
11:55 PM,28.4,26.6,93,29.99,10.0,West,9.2,-,N/A,,Overcast,280,2013-04-25 04:55:00